C/2022 P3 ( ZTF )

Japanese version
Home page
Updated on September 10, 2022

---------------------------------------------------------------------

* Profile

Discovery Date August 2, 2022
Magnitude 19.4 mag
Discoverer Zwicky Transient Facility (ZTF) Collaboration

* Orbital Elements

Epoch 2022 Aug. 9.0 TT = JDT 2459800.5                                          
T 2022 July 27.40390 TT                                 Rudenko                 
q   2.5619005            (2000.0)            P               Q                  
z  +0.0035268      Peri.    0.11251     +0.30410139     -0.48371901             
 +/-0.0000003      Node    72.23879     +0.87335529     -0.20252482             
e   0.9909647      Incl.   59.51579     +0.38049032     +0.85146909             
From 83 observations 2022 Aug. 2-Sept. 7, mean residual 0".4.                   

* Magnitudes Graph

        m1 = 11.5 + 5 log d + 10.0 log r

---------------------------------------------------------------------

The orbital elements are published on M.P.E.C. 2022-R132.
The magnitudes graphs are made with Comet for Windows.

---------------------------------------------------------------------

Copyright(C) Seiichi Yoshida (comet@aerith.net). All rights reserved.